<< Return to Weather Page
Chariton, IA
on Wednesday, June 27, 2012

Wednesday
Previous Day Next Day
Daily Summary
 ActualAverage (KDSM)Record (KDSM)
Temperature
Mean Temperature - 75 °F  
Max Temperature 96 °F 85 °F 102 °F (1934)
Min Temperature 68 °F 65 °F 48 °F (1968)
Degree Days
Heating Degree Days 0 0  
Month to date heating degree days 14  
Since 1 June heating degree days 14  
Since 1 July heating degree days 6199  
Cooling Degree Days 17 10  
Month to date cooling degree days 189  
Year to date cooling degree days 265  
Since 1 June cooling degree days 189  
Growing Degree Days32 (Base - )  
Moisture
Dew Point 63 °F   
Average Humidity 53    
Maximum Humidity 70    
Minimum Humidity 45    
Precipitation
Precipitation 0.00 in 0.16 in 2.37 in (1900)
Month to date precipitation 4.45  
Year to date precipitation 17.63  
Since 1 June precipitation 4.45  
Snow
Snow 0.00 in 0.00 in - ()
Month to date snowfall 0.0  
Since 1 June snowfall 0.0  
Since 1 July snowfall 35.3  
Snow Depth -   
Wind
Wind Speed 14 mph   
Max Wind Speed 24 mph   
Max Gust Speed 30 mph   
Visibility 10 miles   
Events     

Key: T is trace of precipitation, MM is missing value
Source: NWS Daily Summary
Time(CDT)TemperatureDew PointHumidity Pressure Visibility Wind DirectionWind SpeedGust SpeedPrecipitationEvents Conditions
12:15 AM 69.8 °F 57.2 °F 64% 29.83 in 10.0 miles SE 12.7 mph - N/A   Clear
12:35 AM 69.8 °F 55.4 °F 60% 29.83 in 10.0 miles SE 12.7 mph 17.3 mph N/A   Clear
12:55 AM 69.8 °F 55.4 °F 60% 29.83 in 10.0 miles SSE 11.5 mph - N/A   Clear
1:15 AM 69.8 °F 55.4 °F 60% 29.83 in 10.0 miles SSE 15.0 mph 19.6 mph N/A   Clear
1:35 AM 69.8 °F 53.6 °F 56% 29.83 in 10.0 miles SSE 15.0 mph - N/A   Clear
1:55 AM 69.8 °F 53.6 °F 56% 29.83 in 10.0 miles SSE 13.8 mph 18.4 mph N/A   Clear
2:15 AM 69.8 °F 53.6 °F 56% 29.83 in 10.0 miles SSE 11.5 mph - N/A   Clear
2:35 AM 69.8 °F 53.6 °F 56% 29.83 in 10.0 miles SSE 11.5 mph - N/A   Clear
2:55 AM 69.8 °F 53.6 °F 56% 29.83 in 10.0 miles SSE 10.4 mph - N/A   Clear
3:15 AM 68.0 °F 53.6 °F 60% 29.82 in 10.0 miles SSE 10.4 mph - N/A   Clear
3:35 AM 68.0 °F 51.8 °F 56% 29.82 in 10.0 miles SSE 12.7 mph - N/A   Clear
3:55 AM 68.0 °F 51.8 °F 56% 29.82 in 10.0 miles SSE 11.5 mph - N/A   Clear
4:15 AM 68.0 °F 51.8 °F 56% 29.82 in 10.0 miles SSE 12.7 mph - N/A   Clear
4:35 AM 69.8 °F 51.8 °F 53% 29.82 in 10.0 miles SSE 13.8 mph 18.4 mph N/A   Clear
4:55 AM 69.8 °F 51.8 °F 53% 29.82 in 10.0 miles SSE 12.7 mph - N/A   Clear
5:15 AM 69.8 °F 51.8 °F 53% 29.82 in 10.0 miles SSE 13.8 mph 19.6 mph N/A   Clear
5:35 AM 69.8 °F 51.8 °F 53% 29.82 in 10.0 miles SSE 13.8 mph - N/A   Clear
5:55 AM 69.8 °F 50.0 °F 49% 29.82 in 10.0 miles SSE 15.0 mph - N/A   Clear
6:15 AM 69.8 °F 51.8 °F 53% 29.82 in 10.0 miles SSE 13.8 mph 19.6 mph N/A   Clear
6:35 AM 69.8 °F 51.8 °F 53% 29.82 in 10.0 miles South 15.0 mph - N/A   Clear
6:55 AM 69.8 °F 51.8 °F 53% 29.82 in 10.0 miles SSE 15.0 mph 23.0 mph N/A   Clear
7:15 AM 71.6 °F 51.8 °F 50% 29.83 in 10.0 miles South 16.1 mph 20.7 mph N/A   Clear
7:55 AM 73.4 °F 53.6 °F 50% 29.84 in 10.0 miles South 15.0 mph - N/A   Clear
8:15 AM 75.2 °F 55.4 °F 50% 29.84 in 10.0 miles South 15.0 mph 21.9 mph N/A   Clear
8:35 AM 75.2 °F 55.4 °F 50% 29.83 in 10.0 miles South 17.3 mph 21.9 mph N/A   Clear
8:55 AM 77.0 °F 55.4 °F 47% 29.84 in 10.0 miles South 15.0 mph 24.2 mph N/A   Clear
9:15 AM 78.8 °F 57.2 °F 47% 29.84 in 10.0 miles South 16.1 mph 23.0 mph N/A   Clear
9:35 AM 80.6 °F 57.2 °F 45% 29.83 in 7.0 miles South 19.6 mph 24.2 mph N/A   Clear
9:55 AM 80.6 °F 60.8 °F 51% 29.82 in 10.0 miles South 19.6 mph 29.9 mph N/A   Clear
10:15 AM 82.4 °F 60.8 °F 48% 29.82 in 10.0 miles South 19.6 mph 25.3 mph N/A   Clear
10:35 AM 82.4 °F 60.8 °F 48% 29.82 in 10.0 miles South 24.2 mph - N/A   Clear
10:55 AM 84.2 °F 62.6 °F 48% 29.82 in 10.0 miles South 17.3 mph 24.2 mph N/A   Clear
11:15 AM 84.2 °F 62.6 °F 48% 29.81 in 10.0 miles South 20.7 mph 26.5 mph N/A   Clear
11:35 AM 86.0 °F 64.4 °F 48% 29.80 in 10.0 miles South 20.7 mph 26.5 mph N/A   Clear
11:55 AM 86.0 °F 66.2 °F 51% 29.80 in 10.0 miles South 17.3 mph 23.0 mph N/A   Clear
12:15 PM 87.8 °F 66.2 °F 49% 29.81 in 10.0 miles SSW 18.4 mph 24.2 mph N/A   Clear
12:35 PM 89.6 °F 66.2 °F 46% 29.80 in 10.0 miles SSW 16.1 mph 28.8 mph N/A   Clear
12:55 PM 89.6 °F 68.0 °F 49% 29.80 in 10.0 miles SSW 18.4 mph 25.3 mph N/A   Clear
1:15 PM 89.6 °F 68.0 °F 49% 29.80 in 10.0 miles SSW 18.4 mph 26.5 mph N/A   Clear
1:35 PM 91.4 °F 69.8 °F 49% 29.79 in 10.0 miles SSW 16.1 mph 26.5 mph N/A   Clear
1:55 PM 91.4 °F 71.6 °F 52% 29.79 in 10.0 miles SSW 16.1 mph - N/A   Clear
2:15 PM 93.2 °F 71.6 °F 49% 29.79 in 10.0 miles SSW 13.8 mph - N/A   Clear
2:35 PM 93.2 °F 71.6 °F 49% 29.79 in 10.0 miles SSW 19.6 mph 24.2 mph N/A   Clear
2:55 PM 93.2 °F 71.6 °F 49% 29.79 in 10.0 miles SSW 16.1 mph 23.0 mph N/A   Clear
3:15 PM 95.0 °F 73.4 °F 49% 29.79 in 10.0 miles SSW 13.8 mph 19.6 mph N/A   Clear
3:35 PM 96.8 °F 73.4 °F 47% 29.78 in 10.0 miles SSW 17.3 mph 20.7 mph N/A   Clear
3:55 PM 96.8 °F 73.4 °F 47% 29.78 in 10.0 miles SSW 16.1 mph - N/A   Clear
4:15 PM 96.8 °F 73.4 °F 47% 29.78 in 10.0 miles SSW 16.1 mph 21.9 mph N/A   Clear
4:55 PM 96.8 °F 73.4 °F 47% 29.78 in 10.0 miles SSW 11.5 mph - N/A   Clear
5:15 PM 96.8 °F 75.2 °F 50% 29.78 in 10.0 miles SSW 12.7 mph - N/A   Clear
5:35 PM 95.0 °F 73.4 °F 49% 29.78 in 10.0 miles SSW 11.5 mph 21.9 mph N/A   Clear
5:55 PM 95.0 °F 73.4 °F 49% 29.77 in 10.0 miles SSW 12.7 mph 18.4 mph N/A   Clear
6:15 PM 95.0 °F 73.4 °F 49% 29.77 in 10.0 miles SSW 15.0 mph - N/A   Clear
6:35 PM 93.2 °F 73.4 °F 52% 29.76 in 10.0 miles SSW 13.8 mph 18.4 mph N/A   Clear
6:55 PM 93.2 °F 73.4 °F 52% 29.77 in 10.0 miles SSW 13.8 mph - N/A   Clear
7:15 PM 91.4 °F 73.4 °F 55% 29.77 in 7.0 miles SSW 11.5 mph - N/A   Clear
7:35 PM 91.4 °F 73.4 °F 55% 29.77 in 10.0 miles SSW 11.5 mph - N/A   Clear
7:55 PM 89.6 °F 71.6 °F 55% 29.77 in 10.0 miles SSW 12.7 mph - N/A   Clear
8:15 PM 89.6 °F 71.6 °F 55% 29.78 in 7.0 miles SSW 10.4 mph - N/A   Clear
8:35 PM 87.8 °F 71.6 °F 58% 29.77 in 10.0 miles South 9.2 mph - N/A   Clear
8:55 PM 84.2 °F 71.6 °F 66% 29.78 in 10.0 miles South 8.1 mph - N/A   Clear
9:15 PM 82.4 °F 71.6 °F 70% 29.78 in 10.0 miles South 6.9 mph - N/A   Clear
9:35 PM 82.4 °F 71.6 °F 70% 29.79 in 10.0 miles South 9.2 mph - N/A   Clear
9:55 PM 84.2 °F 71.6 °F 66% 29.79 in 10.0 miles South 10.4 mph - N/A   Clear
10:15 PM 84.2 °F 69.8 °F 62% 29.80 in 10.0 miles South 11.5 mph - N/A   Clear
10:35 PM 82.4 °F 69.8 °F 66% 29.80 in 10.0 miles South 10.4 mph - N/A   Clear
10:55 PM 82.4 °F 69.8 °F 66% 29.80 in 10.0 miles South 11.5 mph - N/A   Clear
11:55 PM 82.4 °F 68.0 °F 62% 29.81 in 10.0 miles SSW 12.7 mph - N/A   Clear

Astronomy

Sunrise: 05:43 AM (CDT) Moon Rise: 02:12 PM (CDT) 6 / 27
Sunset: 08:49 PM (CDT) Moon Set: 12:45 AM (CDT) 6 / 27
Moon Phase
Jun. 27 Jul. 03 Jul. 11 Jul. 19 Jul. 26

Powered by the Weather Underground, Inc.